Change the Weather History Date:

Sunday, January 12, 2014

  Actual Average Record
Temperature  
Mean Temperature 80 °F -  
Max Temperature 89 °F 89 °F 95 °F (2000)
Min Temperature 71 °F 73 °F 59 °F (2009)
Cooling Degree Days 15    
Growing Degree Days 30 (Base 50)    
Moisture  
Dew Point 63 °F    
Average Humidity 56    
Maximum Humidity 78    
Minimum Humidity 24    
Precipitation  
Precipitation 0.00 in 0.02 in - ()
Sea Level Pressure  
Sea Level Pressure 29.96 in    
Wind  
Wind Speed 4 mph ()    
Max Wind Speed 13 mph    
Max Gust Speed -    
Visibility 5.6 miles    
Events      
Averages and records for this station are not official NWS values.
T = Trace of Precipitation, MM = Missing Value Source: Averaged Metar Reports

Daily Weather History Graph

Daily Weather History Graph

Search for Another Location

Airport or City:

Trip Planner

Search our weather history database for the weather conditions in past years. The results will help you decide how hot, cold, wet, or windy it might be!

Date:

Astronomy

Jan. 12, 2014 Rise Set
Actual Time 6:44 AM ICT 6:07 PM ICT
Civil Twilight 6:21 AM ICT 6:29 PM ICT
Nautical Twilight 5:55 AM ICT 6:56 PM ICT
Astronomical Twilight 5:29 AM ICT 7:22 PM ICT
Moon 3:06 PM ICT (1/12) 3:21 AM ICT (1/12)
Length of Visible Light 12h 08m
Length of Day
11h 22m
Waxing Gibbous, 86% of the Moon is Illuminated
Jan 12
Waxing Gibbous
Jan 16
Full
Jan 24
Last Quarter
Jan 31
New
Feb 7
First Quarter

Hourly Weather History & Observations

Time (ICT) Temp. Heat Index Dew Point Humidity Pressure Visibility Wind Dir Wind Speed Gust Speed Precip Events Conditions
12:00 AM 77.0 °F - 66.2 °F 69% 29.98 in - Calm Calm - N/A   Clear
12:30 AM 77.0 °F - 66.2 °F 69% 29.98 in - Calm Calm - N/A   Clear
1:00 AM 75 °F - 66 °F 65% 29.97 in 6 mi Calm Calm - -   Clear
1:00 AM 75.2 °F - 66.2 °F 73% 29.98 in - Calm Calm - N/A   Clear
1:30 AM 75.2 °F - 66.2 °F 73% 29.95 in - North 2.3 mph - N/A   Clear
2:00 AM 73.4 °F - 66.2 °F 78% 29.95 in - Calm Calm - N/A   Clear
2:30 AM 75.2 °F - 66.2 °F 73% 29.95 in - NNW 3.5 mph - N/A   Clear
3:00 AM 75.2 °F - 64.4 °F 69% 29.95 in - NNW 5.8 mph - N/A   Clear
3:30 AM 73.4 °F - 62.6 °F 69% 29.95 in - North 5.8 mph - N/A   Clear
4:00 AM 74 °F - 63 °F 61% 29.95 in 6 mi NW 3.5 mph - -   Clear
4:00 AM 73.4 °F - 64.4 °F 73% 29.95 in - NW 3.5 mph - N/A   Clear
4:30 AM 73.4 °F - 64.4 °F 73% 29.95 in - NW 4.6 mph - N/A   Clear
5:00 AM 73.4 °F - 64.4 °F 73% 29.95 in - Calm Calm - N/A   Clear
5:30 AM 71.6 °F - 64.4 °F 78% 29.95 in - Calm Calm - N/A   Clear
6:00 AM 71.6 °F - 64.4 °F 78% 29.98 in 5.6 mi Calm Calm - N/A   Unknown
6:30 AM 71.6 °F - 64.4 °F 78% 29.98 in 5.6 mi Calm Calm - N/A   Unknown
7:00 AM 72 °F - 63 °F 67% 30.00 in 5 mi NW 3.5 mph - -   Mist
7:00 AM 71.6 °F - 64.4 °F 78% 30.01 in 5.0 mi NW 3.5 mph - N/A   Unknown
7:30 AM 73.4 °F - 62.6 °F 69% 30.01 in 4.3 mi WSW 3.5 mph - N/A   Unknown
8:00 AM 73.4 °F - 64.4 °F 73% 30.01 in 4.3 mi NW 3.5 mph - N/A   Unknown
8:30 AM 75.2 °F - 64.4 °F 69% 30.04 in 4.3 mi NNW 3.5 mph - N/A   Unknown
9:00 AM 77.0 °F - 62.6 °F 61% 30.04 in 4.3 mi North 4.6 mph - N/A   Unknown
9:30 AM 78.8 °F - 64.4 °F 61% 30.04 in 5.0 mi WNW 5.8 mph - N/A   Unknown
10:00 AM 80 °F - 62 °F 45% 30.06 in 6 mi NNW 5.8 mph - -   Haze
10:00 AM 80.6 °F 81.8 °F 62.6 °F 54% 30.04 in 5.6 mi NNW 5.8 mph - N/A   Unknown
10:30 AM 82.4 °F 83.4 °F 62.6 °F 51% 30.04 in 5.6 mi NW 8.1 mph - N/A   Unknown
11:00 AM 82.4 °F 83.4 °F 62.6 °F 51% 30.04 in - NNW 9.2 mph - N/A   Clear
11:30 AM 86.0 °F 86.6 °F 62.6 °F 45% 30.01 in - North 8.1 mph - N/A   Clear
12:00 PM 86.0 °F 86.6 °F 62.6 °F 45% 29.98 in - North 8.1 mph - N/A   Clear
12:30 PM 86.0 °F 86.6 °F 62.6 °F 45% 29.98 in - NNW 9.2 mph - N/A   Clear
1:00 PM 87 °F - 63 °F 34% 29.96 in 6 mi NNE 9.2 mph - -   Clear
1:00 PM 87.8 °F 88.5 °F 62.6 °F 43% 29.95 in - NNE 9.2 mph - N/A   Clear
1:30 PM 87.8 °F 88.5 °F 62.6 °F 43% 29.92 in - North 10.4 mph - N/A   Clear
2:00 PM 87.8 °F 87.6 °F 60.8 °F 40% 29.92 in 5.6 mi NNE 11.5 mph - N/A   Unknown
2:30 PM 89.6 °F 88.9 °F 59.0 °F 36% 29.89 in 6.2 mi North 11.5 mph - N/A   Scattered Clouds
3:00 PM 89.6 °F 88.9 °F 59.0 °F 36% 29.89 in 6.2 mi NE 12.7 mph - N/A   Scattered Clouds
3:30 PM 89.6 °F 88.1 °F 57.2 °F 33% 29.89 in 6.2 mi North 12.7 mph - N/A   Scattered Clouds
4:00 PM 89 °F - 57 °F 24% 29.90 in 6 mi North 10.4 mph - -   Scattered Clouds
4:00 PM 89.6 °F 88.1 °F 57.2 °F 33% 29.89 in 6.2 mi North 10.4 mph - N/A   Scattered Clouds
4:30 PM 89.6 °F 88.1 °F 57.2 °F 33% 29.89 in 6.2 mi North 11.5 mph - N/A   Scattered Clouds
5:00 PM 87.8 °F 87.1 °F 59.0 °F 38% 29.89 in 6.2 mi WNW 9.2 mph - N/A   Scattered Clouds
5:30 PM 86.0 °F 86.6 °F 62.6 °F 45% 29.89 in 6.2 mi NNW 10.4 mph - N/A   Scattered Clouds
6:00 PM 86.0 °F 86.1 °F 60.8 °F 43% 29.89 in - NW 9.2 mph - N/A   Clear
6:30 PM 84.2 °F 84.4 °F 60.8 °F 45% 29.92 in - NW 6.9 mph - N/A   Clear
7:00 PM 83 °F - 63 °F 40% 29.93 in 6 mi NW 4.6 mph - -   Clear
7:00 PM 84.2 °F 85.0 °F 62.6 °F 48% 29.92 in - NW 4.6 mph - N/A   Clear
7:30 PM 82.4 °F 83.4 °F 62.6 °F 51% 29.92 in - NW 5.8 mph - N/A   Clear
8:00 PM 82.4 °F 83.9 °F 64.4 °F 54% 29.95 in - WNW 5.8 mph - N/A   Clear
8:30 PM 80.6 °F 82.3 °F 64.4 °F 58% 29.95 in - NW 5.8 mph - N/A   Clear
9:00 PM 80.6 °F 82.3 °F 64.4 °F 58% 29.95 in - NNW 4.6 mph - N/A   Clear
9:30 PM 78.8 °F - 62.6 °F 57% 29.98 in - Calm Calm - N/A   Clear
10:00 PM 78 °F - 63 °F 51% 29.99 in 6 mi NNE 3.5 mph - -   Clear
10:00 PM 78.8 °F - 62.6 °F 57% 29.98 in - NNE 3.5 mph - N/A   Clear
10:30 PM 78.8 °F - 62.6 °F 57% 29.98 in - East 3.5 mph - N/A   Clear
11:00 PM 77.0 °F - 62.6 °F 61% 29.98 in - ESE 4.6 mph - N/A   Clear
11:30 PM 77.0 °F - 64.4 °F 65% 29.98 in - SE 5.8 mph - N/A   Clear